Regional Weather Roundup
Issued by NWS

Home | Current Version | Previous Version | Graphics & Text | Print | Product List | Glossary On
Versions: 1 2 3 4 5 6 7 8 9 10 11 12 13 14 15 16 17 18 19 20 21 22 23 24 25 26 27 28 29 30 31 32 33 34 35 36 37 38 39 40 41 42 43 44 45 46 47 48 49 50
000
ASUS43 KMKX 050610
RWRWI

WISCONSIN REGIONAL WEATHER ROUNDUP
NATIONAL WEATHER SERVICE MILWAUKEE/SULLIVAN WI
1200 AM CST THU MAR 05 2015

NOTE: "FAIR" INDICATES FEW OR NO CLOUDS BELOW 12,000 FEET WITH NO
SIGNIFICANT WEATHER AND/OR OBSTRUCTIONS TO VISIBILITY.

WIZ001-002-006>008-014>016-023>028-050700-
NORTHWEST WISCONSIN

CITY           SKY/WX    TMP DP  RH WIND       PRES   REMARKS
SUPERIOR ARPT  CLEAR     -5 -15  63 W6        30.41R WCI -18
6HR MIN TEMP:  -5; 6HR MAX TEMP:   4;

ASHLAND        CLEAR     -6 -16  61 W8        30.37R WCI -21
6HR MIN TEMP:  -8; 6HR MAX TEMP:   1;

HAYWARD        CLEAR    -17 -23  73 CALM      30.34F
6HR MIN TEMP: -17; 6HR MAX TEMP:   3;

SIREN          CLEAR    -14 -19  76 CALM      30.40S
6HR MIN TEMP: -14; 6HR MAX TEMP:   3;

CUMBERLAND     CLEAR     -9 -18  64 NW5       30.35S WCI -21
RICE LAKE      CLEAR    -11 -19  68 CALM      30.37F
6HR MIN TEMP: -11; 6HR MAX TEMP:   5;

CHETEK         CLEAR    -10 -15  77 CALM      30.36F
6HR MIN TEMP: -10; 6HR MAX TEMP:   4;

LADYSMITH      CLEAR     -8 -14  74 W3        30.34S
6HR MIN TEMP: -11; 6HR MAX TEMP:   5;

EAU CLAIRE     CLEAR     -2 -14  56 NW9       30.37F WCI -18
6HR MIN TEMP:  -3; 6HR MAX TEMP:   7;

MENOMONIE      CLEAR     -2 -12  60 W7        30.39S WCI -15
6HR MIN TEMP:  -2; 6HR MAX TEMP:   8;

NEW RICHMOND   CLEAR     -7 -15  66 NW5       30.40S WCI -18
6HR MIN TEMP:  -8; 6HR MAX TEMP:   4;

OSCEOLA        CLEAR     -5 -14  64 CALM      30.44F
6HR MIN TEMP:  -7; 6HR MAX TEMP:   5;

$$

WIZ003>005-009-010-017-018-050700-
NORTH CENTRAL WISCONSIN

CITY           SKY/WX    TMP DP  RH WIND       PRES   REMARKS
MANITOWISH WTR CLEAR     -8 -17  66 W7        30.24F WCI -23
6HR MIN TEMP: -17; 6HR MAX TEMP:  -1;

ARBOR VITAE    CLEAR     -8 -17  67 CALM      30.24S
6HR MIN TEMP: -12; 6HR MAX TEMP:   2;

WOODRUFF       CLEAR     -8 -17  67 CALM      30.24S
6HR MIN TEMP: -12; 6HR MAX TEMP:   2;

RHINELANDER    CLEAR    -11 -19  68 W7        30.24S WCI -26
6HR MIN TEMP: -13; 6HR MAX TEMP:   2;

EAGLE RIVER    CLEAR     -8 -17  62 W3        30.22F
6HR MIN TEMP: -14; 6HR MAX TEMP:   1;

LAND O LAKES   FLURRIES  -8 -13  76 W3        30.23S
6HR MIN TEMP: -12; 6HR MAX TEMP:   1;

PHILLIPS       CLEAR    -16 -21  80 CALM      30.27F
6HR MIN TEMP: -16; 6HR MAX TEMP:   2;

TOMAHAWK       CLEAR    -16 -22  75 CALM      30.27F
6HR MIN TEMP: -17; 6HR MAX TEMP:   3;

MEDFORD        CLEAR     -9 -16  69 NW3       30.27F
6HR MIN TEMP:  -9; 6HR MAX TEMP:   4;

MERRILL        CLEAR     -5 -14  66 CALM      30.29S
6HR MIN TEMP:  -8; 6HR MAX TEMP:   6;

$$

WIZ029-030-035-036-043>047-050700-
CENTRAL WISCONSIN

CITY           SKY/WX    TMP DP  RH WIND       PRES   REMARKS
WAUSAU         CLEAR     -3 -13  62 NW5       30.29S WCI -13
6HR MIN TEMP:  -4; 6HR MAX TEMP:   6;

MOSINEE        CLEAR     -4 -13  65 NW6       30.30F WCI -16
MARSHFIELD     CLEAR     -8 -17  64 NW7       30.30F WCI -23
6HR MIN TEMP:  -8; 6HR MAX TEMP:   6;

STEVENS POINT  CLEAR     -3 -14  58 CALM      30.31F
6HR MIN TEMP:  -3; 6HR MAX TEMP:   6;

WAUPACA        CLEAR      3 -11  52 NW3       30.34F
6HR MIN TEMP:   3; 6HR MAX TEMP:  12;

WAUTOMA        CLEAR      0 -12  56 CALM      30.37R
6HR MIN TEMP:   1; 6HR MAX TEMP:  11;

WISC RAPIDS    CLEAR      0 -13  54 NW6       30.34F WCI -12
6HR MIN TEMP:   0; 6HR MAX TEMP:   9;

CAMP DOUGLAS   CLEAR     -2 -11  66 W5        30.38R WCI -12
6HR MIN TEMP:  -3; 6HR MAX TEMP:  10;

$$

WIZ011>013-019>022-031-037>040-048>050-050700-
NORTHEAST WISCONSIN

CITY           SKY/WX    TMP DP  RH WIND       PRES   REMARKS
ANTIGO         CLEAR     -8 -15  70 NW3       30.26S
6HR MIN TEMP:  -8; 6HR MAX TEMP:   4;

SHAWANO        CLEAR      2 -11  53 CALM      30.34S
6HR MIN TEMP:   2; 6HR MAX TEMP:  12;

OCONTO         CLEAR      1 -11  57 CALM      30.35S
6HR MIN TEMP:   1; 6HR MAX TEMP:  11;

STURGEON BAY   CLEAR      1 -13  51 NW9       30.34R WCI -14
6HR MIN TEMP:   1; 6HR MAX TEMP:  10;

GREEN BAY      CLEAR     -1 -11  62 NW3       30.35R
6HR MIN TEMP:  -1; 6HR MAX TEMP:  10;

MANITOWOC      CLEAR      2  -8  63 NW6       30.35S WCI  -9
6HR MIN TEMP:   2; 6HR MAX TEMP:  11;

APPLETON       CLEAR      3 -13  47 NW5       30.33F WCI  -6
CLINTONVILLE   CLEAR      1  -9  60 CALM      30.34S
OSHKOSH        CLEAR      4 -10  52 NW5       30.34S WCI  -5
6HR MIN TEMP:   4; 6HR MAX TEMP:  11;

$$

WIZ032>034-041-042-053>061-050700-
SOUTHWEST WISCONSIN

CITY           SKY/WX    TMP DP  RH WIND       PRES   REMARKS
LA CROSSE      CLEAR      3  -7  63 NW8       30.41R WCI -10
6HR MIN TEMP:   3; 6HR MAX TEMP:  12;

SPARTA         CLEAR      3 -10  54 NW5       30.39R WCI  -7
6HR MIN TEMP:   3; 6HR MAX TEMP:  11;

VIROQUA        CLEAR      1  -8  65 W5        30.35R WCI  -8
6HR MIN TEMP:   1; 6HR MAX TEMP:   9;

BOSCOBEL       CLEAR      4  -6  63 CALM      30.43R
6HR MIN TEMP:   4; 6HR MAX TEMP:  14;

PRAIRIE DU CHI CLEAR      4  -7  58 W5        30.44R WCI  -5
6HR MIN TEMP:   4; 6HR MAX TEMP:  12;

PLATTEVILLE    PTCLDY     2  -4  73 W7        30.37S WCI -10
6HR MIN TEMP:   1; 6HR MAX TEMP:  11;

$$

WIZ056-057-062-063-064-067-068-050700-
SOUTH CENTRAL WISCONSIN

CITY           SKY/WX    TMP DP  RH WIND       PRES   REMARKS
REEDSBURG      CLEAR      4  -6  62 CALM      30.37R
6HR MIN TEMP:   4; 6HR MAX TEMP:  12;

BARABOO/DELLS  CLEAR      4 -10  54 CALM      30.37R
6HR MIN TEMP:   3; 6HR MAX TEMP:  11;

LONE ROCK      CLEAR      4  -6  63 W6        30.41R WCI  -7
6HR MIN TEMP:   4; 6HR MAX TEMP:  13;

MINERAL POINT  CLEAR      5  -4  66 W3        30.35R
MADISON        CLEAR      4  -6  63 NW3       30.37R
6HR MIN TEMP:   4; 6HR MAX TEMP:  14;

MIDDLETON      CLEAR      4  -6  62 W5        30.37R WCI  -5
6HR MIN TEMP:   4; 6HR MAX TEMP:  15;

WATERTOWN      CLEAR      6  -6  58 NW3       30.35R
6HR MIN TEMP:   6; 6HR MAX TEMP:  14;

MONROE         CLEAR      5  -2  72 W9        30.34S WCI  -9
JANESVILLE     CLEAR      1  -8  66 W3        30.36S
$$

WIZ051-052-058>065-066-070>072-050700-
SOUTHEAST WISCONSIN

CITY           SKY/WX    TMP DP  RH WIND       PRES   REMARKS
MILWAUKEE      FAIR       9  -9  44 NW8       30.35S WCI  -3
6HR MIN TEMP:   9; 6HR MAX TEMP:  17;

WAUKESHA       CLEAR      5  -9  51 NW6       30.35R WCI  -6
MILWAUKEE/TIMM CLEAR      7  -9  47 NW6       30.36S WCI  -3
RACINE         CLEAR      8  -8  48 NW7       30.37R WCI  -3
6HR MIN TEMP:   8; 6HR MAX TEMP:  16;

BURLINGTON     CLEAR     -3 -12  63 N5        30.35R WCI -13
6HR MIN TEMP:  -3; 6HR MAX TEMP:  12;

KENOSHA        CLEAR      3  -9  57 NW3       30.35R
6HR MIN TEMP:   1; 6HR MAX TEMP:  15;

FOND DU LAC    CLEAR      4 -10  52 W5        30.35R WCI  -5
6HR MIN TEMP:   3; 6HR MAX TEMP:  12;

SHEBOYGAN      FAIR       5 -10  50 NW6       30.35R WCI  -6
6HR MIN TEMP:   5; 6HR MAX TEMP:  12;

WEST BEND      CLEAR      7  -9  47 CALM      30.34S
JUNEAU         CLEAR      4  -8  57 NW3       30.36R
6HR MIN TEMP:   4; 6HR MAX TEMP:  13;

$$

LSZ147-162-050700-
LAKE SUPERIOR

STATION/POSITION TIME  TEMP    WIND        PRES    WAVE
                       AIR SEA DIR/SP/G            HT/PER
                 (UTC) (F)     (DEG/KT/KT) (MB)    (FT/S)
DEVILS ISLAND    0600    5     340/  5/  7 1029.9R
PORT WING        0500    4     300/ 11/ 14 1028.4
SAXON HARBOR     0400    1     220/  5/  7 1026.8R
$$

LMZ867-665-643>646-050700-
LAKE MICHIGAN

STATION/POSITION TIME  TEMP    WIND        PRES    WAVE



USA.gov is the U.S. government's official web portal to all federal, state and local government web resources and services.